FW2611 Ocean City NJ US current weather conditions

sailwx.info

Wind from 274 at 1 knots gusting 5

Air temperature 25.6° C
Dewpoint 20.8° C

Last reported at 2020-Jul-12 12:00 UTC.
Time now 2020-Jul-12 13:08 UTC

Location: N 39°17' W 074°34'.
View on Google Maps.

See reports from other nearby stations

  
Tides and Currents Weather Stations Pressure Air Temp Water Temp Dewpoint Dewpoint Depression Visibility Wind Speed Wind Dir Waves Ship Positions
date/time (UTC)wind fromknots sea level pressurealtimeterstation pressurevisibilityair tempwater tempwave heightnotes
2020-Jul-12 12:00 274 1 gusting 5 25.6
2020-Jul-12 11:46 277 3 gusting 7 25.0
2020-Jul-12 11:31 311 0 gusting 7 24.4
2020-Jul-12 11:15 265 1 gusting 4 24.4
2020-Jul-12 11:01 240 2 gusting 6 23.9
2020-Jul-12 10:46 254 0 gusting 4 23.9
2020-Jul-12 10:31 271 0 gusting 6 23.9
2020-Jul-12 10:16 250 2 gusting 6 23.9
2020-Jul-12 10:01 246 3 gusting 6 23.9
2020-Jul-12 09:45 264 4 gusting 8 23.9
2020-Jul-12 09:30 257 4 gusting 8 23.9
2020-Jul-12 09:15 255 4 gusting 8 23.9
2020-Jul-12 09:00 250 3 gusting 10 24.4
2020-Jul-12 08:45 254 5 gusting 10 24.4
2020-Jul-12 08:30 269 4 gusting 8 24.4
2020-Jul-12 08:15 253 2 gusting 6 24.4
2020-Jul-12 08:00 278 2 gusting 6 24.4
2020-Jul-12 07:45 263 3 gusting 7 24.4
2020-Jul-12 07:15 252 2 gusting 6 24.4
2020-Jul-12 07:00 250 1 gusting 4 24.4
2020-Jul-12 06:46 254 1 gusting 4 24.4
2020-Jul-12 06:45 253 1 gusting 4 24.4
2020-Jul-12 06:34 252 1 gusting 6 24.4
2020-Jul-12 06:17 260 2 gusting 5 24.4
2020-Jul-12 06:02 255 1 gusting 5 24.4
2020-Jul-12 05:46 244 1 gusting 5 25.0
2020-Jul-12 05:31 283 3 gusting 7 25.0
2020-Jul-12 05:16 265 2 gusting 6 25.0
2020-Jul-12 05:01 279 3 gusting 8 25.6
2020-Jul-12 04:47 247 2 gusting 9 25.6
2020-Jul-12 04:31 209 6 gusting 9 25.6
2020-Jul-12 04:15 252 3 gusting 7 25.6
2020-Jul-12 04:01 221 2 gusting 6 26.1
2020-Jul-12 03:46 230 1 gusting 6 26.1
2020-Jul-12 03:31 260 3 gusting 7 26.1
2020-Jul-12 03:16 271 1 gusting 7 26.1
2020-Jul-12 03:01 218 1 gusting 4 26.1
2020-Jul-12 02:46 228 2 gusting 6 26.1
2020-Jul-12 02:31 211 2 gusting 5 26.7
2020-Jul-12 02:15 225 1 gusting 6 26.7
2020-Jul-12 02:01 238 3 gusting 6 27.2
2020-Jul-12 01:45 228 1 gusting 6 27.2
2020-Jul-12 01:31 216 2 gusting 6 27.2
2020-Jul-12 01:16 240 3 gusting 8 27.2
2020-Jul-12 01:00 227 4 gusting 7 27.2
2020-Jul-12 00:46 232 2 gusting 6 26.7
2020-Jul-12 00:30 217 2 gusting 6 26.7
2020-Jul-12 00:15 219 3 gusting 7 26.7
2020-Jul-12 00:00 211 3 gusting 7 27.2
2020-Jul-11 23:46 168 5 gusting 9 27.8
2020-Jul-11 23:31 229 4 gusting 6 27.8
2020-Jul-11 23:16 199 3 gusting 10 27.2
2020-Jul-11 23:01 219 5 gusting 10 27.2
2020-Jul-11 22:46 209 5 gusting 10 27.8
2020-Jul-11 22:30 215 4 gusting 11 27.8
2020-Jul-11 22:15 195 7 gusting 13 27.2
2020-Jul-11 22:00 220 7 gusting 13 28.3
2020-Jul-11 21:45 197 6 gusting 14 28.9
2020-Jul-11 21:30 203 6 gusting 10 28.9
2020-Jul-11 21:15 229 6 gusting 13 29.4
2020-Jul-11 21:00 181 6 gusting 11 29.4
2020-Jul-11 20:46 140 9 gusting 13 30.0
2020-Jul-11 20:30 194 6 gusting 12 30.0
2020-Jul-11 20:15 188 6 gusting 12 29.4
2020-Jul-11 19:45 202 4 gusting 10 29.4
2020-Jul-11 19:30 199 6 gusting 11 29.4
2020-Jul-11 19:15 194 6 gusting 12 29.4
2020-Jul-11 19:00 192 5 gusting 10 30.0
2020-Jul-11 18:45 202 5 gusting 13 29.4
2020-Jul-11 18:30 202 4 gusting 10 28.9
2020-Jul-11 18:17 216 4 gusting 10 28.3
2020-Jul-11 18:01 238 5 gusting 8 27.8
2020-Jul-11 17:46 201 5 gusting 9 27.2
2020-Jul-11 17:31 206 3 gusting 10 26.7
2020-Jul-11 17:15 200 3 gusting 9 26.7
2020-Jul-11 17:01 149 5 gusting 10 26.7
2020-Jul-11 16:46 167 6 gusting 11 26.7
2020-Jul-11 16:31 201 4 gusting 12 26.7
2020-Jul-11 16:16 194 6 gusting 13 26.7
2020-Jul-11 15:45 171 6 gusting 13 27.8
2020-Jul-11 15:32 190 3 gusting 12 28.9
2020-Jul-11 15:16 198 5 gusting 8 28.3
2020-Jul-11 15:01 169 5 gusting 8 28.3
2020-Jul-11 14:46 192 6 gusting 12 27.8
2020-Jul-11 14:30 193 6 gusting 11 27.2
2020-Jul-11 14:16 192 7 gusting 13 26.7
2020-Jul-11 14:00 196 6 gusting 11 26.1
2020-Jul-11 13:45 198 5 gusting 12 26.1
2020-Jul-11 13:31 176 6 gusting 11 26.1
2020-Jul-11 13:16 201 3 gusting 10 25.6
2020-Jul-11 13:00 174 4 gusting 9 25.0
2020-Jul-11 12:45 173 3 gusting 9 25.0
2020-Jul-11 12:30 206 4 gusting 10 24.4
2020-Jul-11 12:15 199 5 gusting 12 24.4
2020-Jul-11 12:00 210 5 gusting 12 24.4
2020-Jul-11 11:45 205 9 gusting 15 24.4
2020-Jul-11 11:30 207 6 gusting 12 24.4
2020-Jul-11 11:15 191 6 gusting 13 24.4
2020-Jul-11 11:00 212 6 gusting 12 23.9
2020-Jul-11 10:45 202 5 gusting 11 23.9
2020-Jul-11 10:31 211 6 gusting 13 23.9
2020-Jul-11 10:15 213 6 gusting 11 23.9
2020-Jul-11 10:00 243 5 gusting 12 23.9
2020-Jul-11 09:45 182 5 gusting 9 23.9
2020-Jul-11 09:30 186 5 gusting 13 23.9
2020-Jul-11 09:15 188 6 gusting 18 23.9
2020-Jul-11 09:01 221 8 gusting 14 23.9
2020-Jul-11 08:45 221 8 gusting 14 23.9
2020-Jul-11 08:30 213 8 gusting 14 23.9
2020-Jul-11 08:15 210 11 gusting 15 23.9
2020-Jul-11 08:00 212 7 gusting 14 23.9
2020-Jul-11 07:31 204 6 gusting 12 23.9
2020-Jul-11 07:16 178 6 gusting 14 23.9
2020-Jul-11 06:46 214 6 gusting 13 23.9
2020-Jul-11 06:33 209 7 gusting 16 23.9
2020-Jul-11 06:16 232 7 gusting 14 23.9
2020-Jul-11 06:01 204 7 gusting 13 24.4
2020-Jul-11 05:45 191 6 gusting 12 24.4
2020-Jul-11 05:32 184 7 gusting 16 24.4
2020-Jul-11 05:16 189 6 gusting 11 24.4
2020-Jul-11 05:01 215 6 gusting 13 25.0
2020-Jul-11 04:45 211 6 gusting 11 25.0
2020-Jul-11 04:31 221 4 gusting 8 25.0
2020-Jul-11 04:16 203 5 gusting 13 25.0
2020-Jul-11 04:00 183 3 gusting 8 25.0
2020-Jul-11 03:45 214 4 gusting 9 25.0
2020-Jul-11 03:31 221 3 gusting 10 25.0
2020-Jul-11 03:16 243 4 gusting 12 25.0
2020-Jul-11 03:01 239 4 gusting 12 25.0
2020-Jul-11 02:46 238 6 gusting 13 25.0
2020-Jul-11 02:30 221 6 gusting 14 25.0
2020-Jul-11 02:15 212 5 gusting 11 25.6
2020-Jul-11 02:00 238 6 gusting 14 25.6
2020-Jul-11 01:45 261 6 gusting 17 25.6
2020-Jul-11 01:30 235 9 gusting 17 25.0
2020-Jul-11 01:15 204 6 gusting 13 24.4
2020-Jul-11 01:01 200 6 gusting 16 24.4
2020-Jul-11 00:45 232 12 gusting 23 23.9
2020-Jul-11 00:30 255 13 gusting 19 23.9
2020-Jul-11 00:15 258 9 gusting 19 23.9
2020-Jul-11 00:00 238 7 gusting 20 23.9
2020-Jul-10 23:45 229 8 gusting 22 24.4
2020-Jul-10 23:31 237 10 gusting 18 24.4
2020-Jul-10 23:15 266 7 gusting 19 24.4
2020-Jul-10 23:00 259 8 gusting 18 23.9
2020-Jul-10 22:45 256 9 gusting 19 23.9
2020-Jul-10 22:30 212 8 gusting 19 23.9
2020-Jul-10 22:15 258 6 gusting 11 24.4
2020-Jul-10 22:00 257 6 gusting 12 24.4
2020-Jul-10 21:45 259 6 gusting 12 25.6
2020-Jul-10 21:30 251 7 gusting 14 25.6
2020-Jul-10 21:15 248 6 gusting 12 25.0
2020-Jul-10 21:00 279 3 gusting 9 25.0
2020-Jul-10 20:45 263 4 gusting 10 25.6
2020-Jul-10 20:30 296 6 gusting 12 25.0
2020-Jul-10 19:46 299 2 gusting 4 24.4
2020-Jul-10 19:33 092 0 gusting 6 25.0
2020-Jul-10 19:16 089 2 gusting 8 23.9
2020-Jul-10 19:02 095 5 gusting 14 23.9
2020-Jul-10 18:46 108 9 gusting 17 23.9
2020-Jul-10 18:31 118 7 gusting 16 23.9
2020-Jul-10 18:18 101 9 gusting 19 23.3
2020-Jul-10 18:01 124 8 gusting 19 23.9
2020-Jul-10 17:46 062 13 gusting 20 23.9
2020-Jul-10 17:31 090 12 gusting 23 23.9
2020-Jul-10 17:15 115 13 gusting 26 23.9
2020-Jul-10 17:01 097 18 gusting 27 23.9
2020-Jul-10 16:45 084 13 gusting 26 23.9
2020-Jul-10 16:31 100 13 gusting 28 23.9
2020-Jul-10 16:15 086 14 gusting 26 23.9
2020-Jul-10 16:00 105 19 gusting 33 24.4
2020-Jul-10 15:45 119 15 gusting 29 24.4
2020-Jul-10 15:30 068 22 gusting 33 24.4
2020-Jul-10 15:16 065 12 gusting 25 24.4
2020-Jul-10 15:00 067 13 gusting 24 23.9
2020-Jul-10 14:46 090 13 gusting 22 23.9
2020-Jul-10 14:30 082 14 gusting 31 23.9
2020-Jul-10 14:15 095 21 gusting 33 23.3
2020-Jul-10 14:00 074 13 gusting 25 22.8
2020-Jul-10 13:45 059 13 gusting 28 22.2
2020-Jul-10 13:30 029 13 gusting 31 22.2
2020-Jul-10 13:15 069 13 gusting 31 22.2
2020-Jul-10 13:00 098 14 gusting 28 22.8